[[{"header":{"parameterUnit":"m.s-1","parameterCategory":1,"la1":30.2991,"la2":30.254,"lo1":-89.0895,"lo2":-89.0444,"dy":0.0017,"dx":0.0017,"nx":28,"ny":28,"refTime":"2023-11-02T03:00:00:Z","depth":0,"parameterNumber":2,"parameterNumberName":"U-component_of_WINDS"},"data":[0,0,0,0,0,0,0,0,0,0,0,0,0,0,0,0,0,0,0,0,0,0,0,0,0,0,0,0,0,0,0,0,0,0,0,0,0,0,0,0,0,0,0,0,0,0,0,0,0,0,0,0,0,0,0,0,0,0,-1.7166,-1.7167,0,-1.7231,-1.7232,-1.7233,-1.7197,-1.7195,-1.7193,-1.7191,-1.7262,-1.7265,-1.7269,0,0,0,0,0,0,0,0,0,0,0,0,0,-1.7013,-1.7016,-1.7166,-1.7167,-1.7168,-1.7231,-1.7232,-1.7233,-1.7197,-1.7195,-1.7193,-1.7191,-1.7261,-1.7265,-1.7269,0,0,0,0,0,0,0,0,0,0,0,0,0,-1.7079,-1.7017,-1.7166,-1.7157,-1.7157,-1.7231,-1.7232,-1.7233,-1.7198,-1.7195,-1.7192,-1.719,-1.7259,-1.7265,-1.727,-1.7357,0,0,-1.7286,-1.7288,0,0,0,0,0,0,0,0,-1.7076,-1.7085,-1.7158,-1.7158,-1.7158,-1.7203,-1.7204,-1.7275,-1.7198,-1.7182,-1.7191,-1.7188,-1.7245,-1.7251,-1.7269,-1.736,-1.7363,-1.7287,-1.729,-1.7292,-1.7294,0,0,0,0,0,0,0,-1.7071,-1.7082,-1.7192,-1.7159,-1.7159,-1.7151,-1.7158,-1.7217,-1.7228,-1.7184,-1.7181,-1.7189,-1.7244,-1.7264,-1.7271,-1.7364,-1.7286,-1.7291,-1.7295,-1.7297,-1.7532,-1.7534,0,0,0,0,0,0,-1.7067,-1.7078,-1.719,-1.7194,-1.7109,-1.7156,-1.7163,-1.7191,-1.7227,-1.723,-1.7191,-1.7187,-1.7257,-1.7265,-1.7273,-1.7379,-1.7292,-1.7297,-1.73,-1.7529,-1.7532,-1.7535,0,0,0,0,0,0,-1.7063,-1.7077,-1.7187,-1.7136,-1.7149,-1.7162,-1.7194,-1.7194,-1.7214,-1.7233,-1.7235,-1.721,-1.7255,-1.7266,-1.7337,-1.7381,-1.73,-1.7304,-1.7525,-1.753,-1.7534,-1.7592,0,0,0,0,0,0,-1.7059,-1.7076,-1.7109,-1.7136,-1.7152,-1.7249,-1.7196,-1.7197,-1.7223,-1.7218,-1.7251,-1.7254,-1.7254,-1.7329,-1.7342,-1.7387,-1.7309,-1.7521,-1.7527,-1.7532,-1.7586,-1.7598,-1.7608,0,0,0,0,0,-1.7054,-1.7123,-1.711,-1.7124,-1.7193,-1.7251,-1.726,-1.7258,-1.7227,-1.726,-1.7272,-1.7253,-1.7373,-1.7336,-1.7351,-1.7398,-1.7518,-1.7525,-1.7532,-1.7581,-1.7595,-1.7607,0,0,0,0,0,0,-1.7101,-1.7126,-1.7113,-1.7193,-1.722,-1.7245,-1.7288,-1.7273,-1.731,-1.7305,-1.73,-1.7308,-1.7382,-1.7397,-1.7355,-1.7485,-1.7441,-1.7451,-1.7474,-1.7487,-1.7498,-1.7495,-1.7313,0,0,0,0,0,-1.712,-1.7165,-1.7185,-1.7253,-1.7267,-1.7275,-1.7301,-1.7296,-1.7325,-1.7337,-1.7354,-1.7384,-1.7428,-1.7458,-1.75,-1.7586,-1.7595,-1.7626,-1.7637,-1.7646,-1.7656,-1.7705,-1.772,-1.7558,-1.7558,-1.7558,0,0,-1.7162,-1.7181,-1.721,-1.7263,-1.7284,-1.7332,-1.7285,-1.7337,-1.7373,-1.7345,-1.7413,-1.7427,-1.746,-1.7539,-1.7575,-1.7554,-1.7702,-1.7655,-1.7662,-1.7667,-1.7713,-1.7729,-1.7742,-1.7563,-1.7562,-1.7561,0,0,-1.7262,-1.728,-1.734,-1.7361,-1.7392,-1.7397,-1.7411,-1.7438,-1.7446,-1.7514,-1.7494,-1.7537,-1.7613,-1.7638,-1.7661,-1.7769,-1.7754,-1.7783,-1.7841,-1.7889,-1.7902,-1.7913,-1.7955,-1.7969,-1.7792,-1.7792,-1.7792,0,-1.731,-1.738,-1.7373,-1.7427,-1.7452,-1.7426,-1.7488,-1.7509,-1.7553,-1.7571,-1.7546,-1.7642,-1.7662,-1.7748,-1.7775,-1.7793,-1.7811,-1.7781,-1.79,-1.7912,-1.7922,-1.7962,-1.7977,-1.7796,-1.7795,-1.7795,-1.7795,0,-1.7438,-1.7487,-1.7532,-1.7574,-1.7604,-1.7661,-1.7664,-1.7695,-1.7687,-1.7694,-1.7765,-1.7787,-1.7835,-1.7854,-1.7847,-1.7939,-1.7925,-1.79,-1.7857,-1.7941,-1.7979,-1.7993,-1.7801,-1.78,-1.7798,-1.7798,0,0,-1.7573,-1.761,-1.7627,-1.7646,-1.7678,-1.7717,-1.7773,-1.7817,-1.7845,-1.7876,-1.7925,-1.7989,-1.7967,-1.7992,-1.7988,-1.8029,-1.8117,-1.7999,-1.8,-1.8023,-1.8223,-1.8244,-1.8261,-1.8105,-1.8107,-1.811,-1.8221,0,-1.7678,-1.7776,-1.777,-1.7863,-1.7909,-1.7885,-1.7934,-1.796,-1.7968,-1.8009,-1.8018,-1.8065,-1.803,-1.8046,-1.8085,-1.8098,-1.8157,-1.8089,-1.8153,-1.8155,-1.8149,-1.828,-1.8303,-1.8407,-1.8235,-1.8237,-1.8239,0,-1.7814,-1.7848,-1.7945,-1.7971,-1.799,-1.8035,-1.8076,-1.8115,-1.8144,-1.8147,-1.8175,-1.8164,-1.8222,-1.8174,-1.8256,-1.821,-1.8235,-1.8245,-1.8249,-1.8258,-1.8205,-1.8296,-1.844,-1.8457,-1.8261,-1.826,-1.8258,0,-1.7906,-1.7976,-1.8044,-1.8061,-1.8092,-1.8124,-1.8139,-1.8165,-1.8193,-1.8228,-1.8246,-1.8289,-1.8313,-1.8346,-1.8347,-1.8312,-1.8431,-1.8383,-1.8438,-1.8438,-1.8467,-1.8466,-1.8621,-1.8477,-1.8477,-1.8477,-1.8477,0,-1.8025,-1.8087,-1.8086,-1.8128,-1.8196,-1.8189,-1.8257,-1.8269,-1.8292,-1.8337,-1.8317,-1.836,-1.8357,-1.8401,-1.8401,-1.8471,-1.8481,-1.8487,-1.8487,-1.849,-1.849,-1.851,-1.8504,-1.8481,-1.848,-1.8479,-1.8479,0,-1.8142,-1.8143,-1.8216,-1.8239,-1.8246,-1.8296,-1.8316,-1.8357,-1.8362,-1.8419,-1.8432,-1.8441,-1.8491,-1.8494,-1.8553,-1.8553,-1.8638,-1.8629,-1.8629,-1.8628,-1.8684,-1.868,-1.886,-1.8884,-1.8722,-1.8724,-1.8725,0,-1.822,-1.8266,-1.8294,-1.8322,-1.8338,-1.8383,-1.8411,-1.8405,-1.8435,-1.8471,-1.8508,-1.8556,-1.8595,-1.8677,-1.869,-1.8734,-1.8728,-1.8787,-1.8735,-1.8738,-1.8733,-1.8732,-1.8737,-1.8799,-1.8801,-1.8802,-1.8804,0,-1.8359,-1.8357,-1.8397,-1.8438,-1.8471,-1.8503,-1.8533,-1.8557,-1.8555,-1.859,-1.864,-1.867,-1.8729,-1.8778,-1.8821,-1.8838,-1.8822,-1.8819,-1.8835,-1.8841,-1.8841,-1.8845,-1.8661,-1.8816,-1.8815,-1.8814,-1.8813,-1.8813,-1.8461,-1.8502,-1.8527,-1.8573,-1.8594,-1.8622,-1.8662,-1.8671,-1.8713,-1.876,-1.8754,-1.8811,-1.8839,-1.8896,-1.8915,-1.8961,-1.8941,-1.8963,-1.8969,-1.8976,-1.8983,-1.883,-1.8968,-1.8968,-1.8968,-1.8967,-1.8967,0,-1.8602,-1.8617,-1.8658,-1.87,-1.8736,-1.8715,-1.8746,-1.8779,-1.8829,-1.8855,-1.8893,-1.8952,-1.8999,-1.9015,-1.9061,-1.9095,-1.9089,-1.9108,-1.9107,-1.9112,-1.8997,-1.898,-1.9112,-1.9112,-1.9112,-1.9112,-1.9112,-1.9112,-1.868,-1.8748,-1.875,-1.8829,-1.8843,-1.8898,-1.8919,-1.8945,-1.8966,-1.9033,-1.9071,-1.908,-1.9104,-1.9151,-1.9194,-1.9197,-1.9217,-1.924,-1.9241,-1.9134,-1.9119,-1.9106,-1.909,-1.9243,-1.9243,-1.9352,-1.9353,-1.9354]},{"header":{"parameterUnit":"m.s-1","parameterCategory":1,"la1":30.2991,"la2":30.254,"lo1":-89.0895,"lo2":-89.0444,"dy":0.0017,"dx":0.0017,"nx":28,"ny":28,"refTime":"2023-11-02T03:00:00:Z","depth":0,"parameterNumber":3,"parameterNumberName":"V-component_of_WINDS"},"data":[0,0,0,0,0,0,0,0,0,0,0,0,0,0,0,0,0,0,0,0,0,0,0,0,0,0,0,0,0,0,0,0,0,0,0,0,0,0,0,0,0,0,0,0,0,0,0,0,0,0,0,0,0,0,0,0,0,0,-3.6922,-3.6923,0,-3.6958,-3.6958,-3.6958,-3.6902,-3.69,-3.6899,-3.6897,-3.693,-3.6933,-3.6936,0,0,0,0,0,0,0,0,0,0,0,0,0,-3.6804,-3.6807,-3.6922,-3.6923,-3.6923,-3.6957,-3.6958,-3.6958,-3.6903,-3.69,-3.6898,-3.6896,-3.693,-3.6933,-3.6936,0,0,0,0,0,0,0,0,0,0,0,0,0,-3.6849,-3.6807,-3.6922,-3.6899,-3.6898,-3.6957,-3.6958,-3.6959,-3.6903,-3.69,-3.6897,-3.6895,-3.6929,-3.6932,-3.6936,-3.7019,0,0,-3.6949,-3.695,0,0,0,0,0,0,0,0,-3.6847,-3.6853,-3.6902,-3.6901,-3.6899,-3.6923,-3.6929,-3.6979,-3.6904,-3.6901,-3.6897,-3.6893,-3.693,-3.6934,-3.6947,-3.702,-3.7022,-3.6949,-3.6952,-3.6953,-3.6954,0,0,0,0,0,0,0,-3.6843,-3.6851,-3.6936,-3.6903,-3.6901,-3.6887,-3.689,-3.6938,-3.6931,-3.6901,-3.6897,-3.6902,-3.6929,-3.6943,-3.6947,-3.7022,-3.6949,-3.6953,-3.6955,-3.6957,-3.7167,-3.717,0,0,0,0,0,0,-3.6843,-3.6849,-3.6935,-3.6937,-3.6865,-3.6891,-3.6895,-3.6918,-3.6931,-3.693,-3.6905,-3.69,-3.6937,-3.6942,-3.6948,-3.7047,-3.6953,-3.6957,-3.6959,-3.7164,-3.7168,-3.7171,0,0,0,0,0,0,-3.6841,-3.6852,-3.6933,-3.6892,-3.6901,-3.6896,-3.6923,-3.692,-3.6935,-3.6933,-3.6932,-3.6921,-3.6935,-3.6942,-3.7002,-3.7047,-3.6959,-3.6962,-3.716,-3.7165,-3.7169,-3.7245,0,0,0,0,0,0,-3.6838,-3.6851,-3.6883,-3.6893,-3.6904,-3.6988,-3.6926,-3.6923,-3.6942,-3.6936,-3.6948,-3.6947,-3.6934,-3.6997,-3.7006,-3.7051,-3.6966,-3.7156,-3.7162,-3.7168,-3.7239,-3.7252,-3.7263,0,0,0,0,0,-3.6834,-3.6902,-3.6885,-3.6896,-3.6944,-3.6991,-3.6997,-3.6981,-3.6946,-3.6978,-3.6977,-3.6947,-3.704,-3.7003,-3.7014,-3.7061,-3.7153,-3.7161,-3.7167,-3.7233,-3.7249,-3.7263,0,0,0,0,0,0,-3.6896,-3.6903,-3.6884,-3.6958,-3.6974,-3.6981,-3.7021,-3.6998,-3.7024,-3.7017,-3.6995,-3.6998,-3.7063,-3.7067,-3.7026,-3.7142,-3.7091,-3.71,-3.7137,-3.7152,-3.7165,-3.7163,-3.6969,0,0,0,0,0,-3.6918,-3.6957,-3.696,-3.7025,-3.7034,-3.7026,-3.7046,-3.7032,-3.7048,-3.7055,-3.7058,-3.7074,-3.7107,-3.713,-3.716,-3.7238,-3.7241,-3.7275,-3.7288,-3.7298,-3.7307,-3.735,-3.7366,-3.7195,-3.7194,-3.7194,0,0,-3.6965,-3.6973,-3.6999,-3.7038,-3.7049,-3.7089,-3.7033,-3.7077,-3.7106,-3.7061,-3.7119,-3.7122,-3.7138,-3.7208,-3.7239,-3.7214,-3.7355,-3.7307,-3.7315,-3.7319,-3.7359,-3.7376,-3.739,-3.7199,-3.7199,-3.7198,0,0,-3.7071,-3.708,-3.7136,-3.7149,-3.7167,-3.7161,-3.7175,-3.7186,-3.7186,-3.7244,-3.7211,-3.7245,-3.7302,-3.7316,-3.733,-3.7441,-3.7415,-3.7451,-3.7517,-3.7559,-3.7573,-3.7585,-3.7626,-3.7641,-3.746,-3.746,-3.746,0,-3.7126,-3.7186,-3.7167,-3.7215,-3.7233,-3.7195,-3.7251,-3.7264,-3.7291,-3.7304,-3.7275,-3.7347,-3.7355,-3.7428,-3.7456,-3.7468,-3.7483,-3.7451,-3.7572,-3.7584,-3.7595,-3.7634,-3.765,-3.7465,-3.7464,-3.7464,-3.7463,0,-3.7254,-3.7296,-3.7339,-3.7368,-3.739,-3.7442,-3.7431,-3.7456,-3.744,-3.7437,-3.7496,-3.7505,-3.7537,-3.7552,-3.7536,-3.7624,-3.7608,-3.7576,-3.7525,-3.7616,-3.7653,-3.7668,-3.7471,-3.747,-3.7468,-3.7467,0,0,-3.7401,-3.742,-3.7436,-3.7449,-3.7466,-3.7498,-3.7547,-3.758,-3.7603,-3.7622,-3.7664,-3.7713,-3.7684,-3.77,-3.7685,-3.7722,-3.7812,-3.7685,-3.7685,-3.7711,-3.7911,-3.7937,-3.7955,-3.7793,-3.7796,-3.7798,-3.791,0,-3.7509,-3.7596,-3.7581,-3.7666,-3.7705,-3.7669,-3.7712,-3.7727,-3.7726,-3.7758,-3.7755,-3.7792,-3.775,-3.776,-3.7794,-3.7794,-3.7852,-3.7785,-3.7833,-3.7835,-3.7833,-3.7973,-3.8001,-3.8106,-3.7924,-3.7927,-3.7928,0,-3.7646,-3.7673,-3.7762,-3.7774,-3.779,-3.783,-3.7859,-3.789,-3.7906,-3.7902,-3.7921,-3.7899,-3.7948,-3.7895,-3.7963,-3.7918,-3.7936,-3.7938,-3.7942,-3.7948,-3.7889,-3.7985,-3.8139,-3.8156,-3.795,-3.7949,-3.7947,0,-3.7748,-3.7805,-3.7866,-3.7878,-3.7893,-3.7922,-3.793,-3.7943,-3.7964,-3.7988,-3.8002,-3.8031,-3.8048,-3.8071,-3.8058,-3.802,-3.8129,-3.8074,-3.8128,-3.8129,-3.8155,-3.8154,-3.8316,-3.8162,-3.8162,-3.8162,-3.8161,0,-3.7871,-3.7927,-3.7913,-3.7951,-3.8013,-3.7994,-3.8056,-3.8059,-3.8071,-3.8109,-3.8077,-3.8113,-3.8093,-3.8127,-3.8116,-3.8175,-3.8182,-3.8181,-3.8178,-3.8185,-3.8186,-3.8199,-3.8192,-3.8166,-3.8165,-3.8164,-3.8163,0,-3.7996,-3.7988,-3.8053,-3.8062,-3.8066,-3.8112,-3.8119,-3.8155,-3.815,-3.8199,-3.8209,-3.8202,-3.8241,-3.8229,-3.827,-3.8263,-3.8339,-3.8325,-3.8334,-3.8332,-3.8388,-3.8384,-3.8566,-3.859,-3.8418,-3.842,-3.8421,0,-3.8076,-3.8119,-3.8134,-3.8157,-3.8168,-3.8206,-3.8227,-3.821,-3.8233,-3.8255,-3.8288,-3.8324,-3.8352,-3.8415,-3.8414,-3.8445,-3.8434,-3.8495,-3.8438,-3.8445,-3.8438,-3.8436,-3.8441,-3.8508,-3.851,-3.8511,-3.8512,0,-3.822,-3.8215,-3.8247,-3.828,-3.8307,-3.833,-3.8351,-3.8372,-3.8356,-3.8384,-3.8424,-3.8446,-3.8488,-3.8525,-3.8554,-3.856,-3.8535,-3.853,-3.8545,-3.8554,-3.8559,-3.856,-3.8368,-3.8527,-3.8525,-3.8524,-3.8523,-3.8523,-3.8327,-3.8364,-3.8381,-3.8419,-3.8433,-3.8454,-3.8488,-3.8489,-3.8522,-3.8557,-3.8543,-3.859,-3.8604,-3.864,-3.8651,-3.8686,-3.8663,-3.8683,-3.8689,-3.8695,-3.8704,-3.8551,-3.8691,-3.869,-3.869,-3.869,-3.8689,0,-3.8472,-3.8481,-3.8516,-3.8547,-3.8577,-3.855,-3.8572,-3.8599,-3.864,-3.8657,-3.8686,-3.8732,-3.8767,-3.8768,-3.8801,-3.883,-3.8819,-3.8839,-3.8838,-3.8841,-3.8721,-3.8707,-3.8848,-3.8847,-3.8847,-3.8847,-3.8847,-3.8847,-3.8551,-3.8614,-3.861,-3.8679,-3.8687,-3.8733,-3.8748,-3.8767,-3.878,-3.8834,-3.8864,-3.8865,-3.8875,-3.8909,-3.894,-3.8939,-3.8954,-3.898,-3.8975,-3.8864,-3.8849,-3.8834,-3.882,-3.8982,-3.8982,-3.9091,-3.9092,-3.9093]}]]